TIANWANG 1B (TW-1B)
1 40927U 15051C   19116.41410808  .00009281  00000-0  14991-3 0  9995
2 40927  97.1445 162.1510 0007716 206.8224 278.9699 15.53057773201742
TIANWANG 1A (TW-1A)
1 40928U 15051D   19116.36972606  .00002698  00000-0  68583-4 0  9991
2 40928  97.1509 148.8509 0009051 267.0601 221.1480 15.40446268200963
LAPAN A2
1 40931U 15052B   19116.19248610  .00000664  00000-0  34605-5 0  9998
2 40931   5.9966  78.1033 0012386 114.5619 245.5852 14.76604542193343
LQSAT
1 40958U 15057A   19115.76635131  .00000019  00000-0  10552-4 0  9990
2 40958  97.9022 186.4080 0019328  57.2574 303.0494 14.73074659190860
CHUBUSAT 2
1 41338U 16012B   19116.39446359  .00000295  00000-0  16189-4 0  9995
2 41338  31.0022 123.4727 0013818 295.1331  64.7870 15.00128986174903
CHUBUSAT 3
1 41339U 16012C   19116.37021786  .00000288  00000-0  15606-4 0  9992
2 41339  31.0091 121.7913 0013796 302.5657  57.3647 15.00306029174891
OUFTI-1
1 41458U 16025C   19115.89377784 +.00002063 +00000-0 +10863-3 0  9998
2 41458 098.1019 200.0140 0167431 177.4040 182.8095 15.05618900164474
E-STAR-2
1 41459U 16025D   19116.49591736  .00002156  00000-0  11372-3 0  9990
2 41459  98.1024 200.3400 0169154 176.6479 183.5930 15.05278769164543
AAUSAT 4
1 41460U 16025E   19116.27131879  .00001784  00000-0  93402-4 0  9997
2 41460  98.0952 201.2142 0158740 170.5905 189.8369 15.07072221164624
NUSAT 1
1 41557U 16033B   19116.51119685  .00001296  00000-0  51471-4 0  9999
2 41557  97.4173 204.3274 0015391 122.7063 237.5663 15.27070985161977
BEESAT 4
1 41619U 16040W   19116.36380547  .00001238  00000-0  55598-4 0  9996
2 41619  97.3722 179.5712 0010716 203.0278 157.0480 15.22970174145746
PRATHAM
1 41783U 16059A   19115.77334494  .00000037  00000-0  16524-4 0  9994
2 41783  98.0726 176.5309 0033407 191.2670 168.7788 14.62985584137661
ALSAT 1N
1 41789U 16059G   19116.42297991  .00000085  00000-0  25157-4 0  9998
2 41789  98.0735 179.0450 0028314 178.5890 181.5405 14.64232552137857
NAYIF 1
1 42017U 17008BX  19116.23616206  .00001376  00000-0  57393-4 0  9992
2 42017  97.4070 183.8735 0006319  14.1381 346.0033 15.25363242121775
LILACSAT-1
1 42725U 98067ME  19087.71781172  .15670676  12603-4  45746-3 0  9992
2 42725  51.6064 319.7683 0009359 299.6698  60.5570 16.44549673105565
MAX VALIER SAT
1 42778U 17036P   19116.14223722  .00000983  00000-0  46097-4 0  9996
2 42778  97.3596 174.9750 0013854  57.6886 302.5690 15.21906704102095
